Regional Weather Roundup
Issued by NWS Huntsville, AL

Home | Current Version | Previous Version | Text Only | Print | Product List | Glossary On
Versions: 1 2 3 4 5 6 7 8 9 10 11 12 13 14 15 16 17 18 19 20 21 22 23 24 25 26 27 28 29 30 31 32 33 34 35 36 37 38 39 40 41 42 43 44 45 46 47 48 49 50
000
ASUS44 KHUN 031510
RWRHUN

WEATHER ROUNDUP FOR THE TENNESSEE VALLEY
NATIONAL WEATHER SERVICE HUNTSVILLE AL
1000 AM CDT THU SEP 03 2015

ALZ001>004-031600-
NORTHWEST ALABAMA

CITY           SKY/WX    TMP DP  RH WIND       PRES   REMARKS
COURTLAND HCN    N/A     81 N/A N/A CALM        N/A
BANKHEAD NF      N/A     85  77  77 CALM        N/A  HX  96
RUSSELLVILLE     N/A     79 N/A N/A MISG        N/A
SHOALS AIRPORT SUNNY     81  72  74 CALM      30.05S
SHOALS TVA RES   N/A     81 N/A N/A MISG        N/A
$$

ALZ005>007-016-031600-
NORTH CENTRAL ALABAMA

CITY           SKY/WX    TMP DP  RH WIND       PRES   REMARKS
CULLMAN AG STN   N/A     79 N/A N/A CALM        N/A
DECATUR AP     MOSUNNY   82  73  74 NE5       30.04S
HUNTSVILLE AP  PTSUNNY   85  73  67 CALM      30.04S HX  91
HUN NWS/UAH      N/A     83  69  62 N3          N/A
MERIDIANVILLE  MOSUNNY   81  64  57 CALM      30.04S
REDSTONE ARSN  PTSUNNY   85  72  65 NE6       30.03S HX  90
VINEMONT AP    FAIR      81  72  74 CALM      30.07S
$$

ALZ008>010-031600-
NORTHEAST ALABAMA

CITY           SKY/WX    TMP DP  RH WIND       PRES   REMARKS
ALBERTVILLE    MOSUNNY   82  75  78 N6        30.04S
FORT PAYNE     PTSUNNY   75  68  78 CALM      30.05S
SCOTTSBORO AP  PTSUNNY   79  73  83 NE3       30.05S
SCOTTSBORO HCN   N/A     75 N/A N/A MISG        N/A
VALLEY HEAD      N/A     77 N/A N/A MISG        N/A
$$

TNZ076-096-097-031600-
SOUTHEASTERN MIDDLE TENNESSEE

CITY           SKY/WX    TMP DP  RH WIND       PRES   REMARKS
TULLAHOMA      SUNNY     82  70  65 N3        30.07S
WINCHESTER     SUNNY     82  72  69 CALM      30.05F
$$

...SURROUNDING SITES...

CITY           SKY/WX    TMP DP  RH WIND       PRES   REMARKS
ATLANTA        CLOUDY    81  70  69 N6        30.03S
ANNISTON       PTSUNNY   79  72  79 SW6       30.03F
BIRMINGHAM     PTSUNNY   83  72  69 CALM      30.05F
CHATTANOOGA    CLOUDY    82  67  60 N7        30.04S
DALTON         CLOUDY    75  73  94 N7        30.04R
GADSDEN        PTSUNNY   81  70  69 CALM      30.03R
GOLDEN TRNGL   SUNNY     84  72  65 NW5       30.02F
HALEYVILLE     FAIR      83  73  71 CALM      30.08S
JACKSON TN     SUNNY     84  73  69 N5        30.04S HX  90
MEMPHIS        MOSUNNY   84  70  62 CALM      30.04S
NASHVILLE      MOSUNNY   87  67  51 NE5       30.05S HX  90
OXFORD MS      FAIR      81  72  74 CALM      30.05F
ROME           CLOUDY    81  72  74 W6        30.02S
SAVANNAH       SUNNY     82  32  16 CALM      30.04F
TUPELO         SUNNY     83  73  72 VRB3      30.03S
TUSCALOOSA     SUNNY     86  73  65 N3        30.02S HX  93
$$

...GULF COAST WEATHER...

CITY           SKY/WX    TMP DP  RH WIND       PRES   REMARKS
GULFPORT       MOSUNNY   86  73  65 CALM      30.01R HX  93
PASCAGOULA     PTSUNNY   83  75  77 CALM      30.02R HX  90
MOBILE         CLOUDY    83  73  72 CALM      30.03R
GULF SHORES    CLOUDY    83  76  78 CALM      30.01S HX  92
PENSACOLA      PTSUNNY   84  76  76 NW5       30.01R HX  93
DESTIN         PTSUNNY   86  73  65 NW3       30.01R HX  93
PANAMA CITY    PTSUNNY   85  77  77 NW6       30.00R HX  95
APPALACHICOLA  PTSUNNY   88  75  65 NW5       30.00R HX  97
$$




USA.gov is the U.S. government's official web portal to all federal, state and local government web resources and services.